| time (UTC) | temp F | wind direction | speed MPH | gust MPH | rain 1hr in | rain 24hr in | rain mn in | humidity % | barometer mb |
| 20260508202125 | 52 | 315 | 4.0 | 8.0 | 0.00 | 0.00 | 0.00 | 41 | 988.6 |
| 20260508201337 | 52 | 338 | 1.0 | 3.0 | 0.00 | 0.00 | 0.00 | 38 | 988.5 |
| 20260508200629 | 53 | 293 | 4.0 | 7.0 | 0.00 | 0.00 | 0.00 | 39 | 988.5 |
| 20260508200019 | 52 | 293 | 3.0 | 8.0 | 0.00 | 0.00 | 0.00 | 39 | 988.5 |
| 20260508195343 | 52 | 270 | 5.0 | 8.0 | 0.00 | 0.00 | 0.00 | 42 | 988.6 |
| 20260508195341 | 52 | 293 | 7.0 | 13.0 | 0.00 | 0.00 | 0.00 | 39 | 988.5 |
| 20260508193530 | 52 | 293 | 3.0 | 6.0 | 0.00 | 0.00 | 0.00 | 43 | 988.5 |
| 20260508192626 | 52 | 270 | 8.0 | 10.0 | 0.00 | 0.00 | 0.00 | 39 | 988.5 |
| 20260508191820 | 51 | 293 | 3.0 | 8.0 | 0.00 | 0.00 | 0.00 | 40 | 988.5 |
| 20260508191027 | 51 | 293 | 2.0 | 3.0 | 0.00 | 0.00 | 0.00 | 40 | 988.5 |
| 20260508190425 | 51 | 293 | 6.0 | 9.0 | 0.00 | 0.00 | 0.00 | 38 | 988.5 |
| 20260508185420 | 52 | 315 | 1.0 | 3.0 | 0.00 | 0.00 | 0.00 | 39 | 988.5 |
| 20260508184518 | 51 | 270 | 9.0 | 12.0 | 0.00 | 0.00 | 0.00 | 39 | 988.6 |
| 20260508184515 | 51 | 293 | 7.0 | 10.0 | 0.00 | 0.00 | 0.00 | 40 | 988.8 |
| 20260508181718 | 51 | 293 | 10.0 | 14.0 | 0.00 | 0.00 | 0.00 | 39 | 988.8 |
| 20260508180718 | 51 | 293 | 7.0 | 9.0 | 0.00 | 0.00 | 0.00 | 39 | 988.9 |
| 20260508175826 | 52 | 293 | 7.0 | 13.0 | 0.00 | 0.00 | 0.00 | 39 | 988.9 |
| 20260508175222 | 52 | 270 | 7.0 | 10.0 | 0.00 | 0.00 | 0.00 | 41 | 988.8 |
| 20260508174742 | 50 | 270 | 9.0 | 12.0 | 0.00 | 0.00 | 0.00 | 41 | 988.9 |
| 20260508174740 | 51 | 293 | 9.0 | 13.0 | 0.00 | 0.00 | 0.00 | 41 | 989.0 |
| 20260508173023 | 51 | 293 | 9.0 | 14.0 | 0.00 | 0.00 | 0.00 | 39 | 989.0 |
| 20260508171820 | 52 | 315 | 9.0 | 13.0 | 0.00 | 0.00 | 0.00 | 38 | 989.0 |
| 20260508170831 | 51 | 315 | 8.0 | 12.0 | 0.00 | 0.00 | 0.00 | 41 | 989.0 |
| 20260508170526 | 50 | 270 | 8.0 | 12.0 | 0.00 | 0.00 | 0.00 | 42 | 989.0 |
| 20260508165542 | 50 | 338 | 7.0 | 13.0 | 0.00 | 0.00 | 0.00 | 44 | 989.1 |
| 20260508164627 | 49 | 315 | 9.0 | 12.0 | 0.00 | 0.00 | 0.00 | 42 | 989.1 |
| 20260508163927 | 50 | 293 | 9.0 | 15.0 | 0.00 | 0.00 | 0.00 | 41 | 989.2 |
| 20260508163128 | 50 | 293 | 2.0 | 4.0 | 0.00 | 0.00 | 0.00 | 41 | 989.1 |
| 20260508162629 | 50 | 270 | 7.0 | 10.0 | 0.00 | 0.00 | 0.00 | 44 | 989.3 |
| 20260508161731 | 49 | 293 | 4.0 | 8.0 | 0.00 | 0.00 | 0.00 | 42 | 989.1 |
| 20260508161525 | 49 | 315 | 6.0 | 10.0 | 0.00 | 0.00 | 0.00 | 43 | 989.1 |
| 20260508160520 | 49 | 315 | 3.0 | 5.0 | 0.00 | 0.00 | 0.00 | 43 | 989.1 |
| 20260508155519 | 50 | 293 | 5.0 | 10.0 | 0.00 | 0.00 | 0.00 | 42 | 989.1 |
| 20260508154520 | 51 | 293 | 8.0 | 11.0 | 0.00 | 0.00 | 0.00 | 40 | 989.1 |
| 20260508153519 | 51 | 270 | 10.0 | 17.0 | 0.00 | 0.00 | 0.00 | 37 | 988.9 |
| 20260508152519 | 52 | 270 | 10.0 | 14.0 | 0.00 | 0.00 | 0.00 | 39 | 989.0 |
| 20260508151518 | 51 | 338 | 9.0 | 13.0 | 0.00 | 0.00 | 0.00 | 37 | 988.9 |
| 20260508150520 | 50 | 293 | 5.0 | 12.0 | 0.00 | 0.00 | 0.00 | 39 | 988.9 |
| 20260508145519 | 49 | 293 | 5.0 | 8.0 | 0.00 | 0.00 | 0.00 | 42 | 989.1 |
| 20260508144528 | 49 | 293 | 4.0 | 7.0 | 0.00 | 0.00 | 0.00 | 43 | 989.1 |
| 20260508143521 | 49 | 0 | 4.0 | 8.0 | 0.00 | 0.00 | 0.00 | 44 | 989.2 |
| 20260508142522 | 48 | 270 | 11.0 | 14.0 | 0.00 | 0.00 | 0.00 | 42 | 989.3 |
| 20260508141520 | 49 | 293 | 7.0 | 12.0 | 0.00 | 0.00 | 0.00 | 42 | 989.2 |
| 20260508140519 | 49 | 315 | 11.0 | 18.0 | 0.00 | 0.00 | 0.00 | 39 | 989.3 |
| 20260508135520 | 49 | 270 | 8.0 | 12.0 | 0.00 | 0.00 | 0.00 | 44 | 989.4 |
| 20260508134529 | 49 | 293 | 7.0 | 13.0 | 0.00 | 0.00 | 0.00 | 48 | 989.4 |
| 20260508133519 | 48 | 270 | 11.0 | 17.0 | 0.00 | 0.00 | 0.00 | 47 | 989.4 |
| 20260508132520 | 48 | 338 | 3.0 | 8.0 | 0.00 | 0.00 | 0.00 | 51 | 989.5 |
| 20260508131519 | 47 | 315 | 3.0 | 6.0 | 0.00 | 0.00 | 0.00 | 54 | 989.5 |
| 20260508130519 | 46 | 315 | 5.0 | 8.0 | 0.00 | 0.00 | 0.00 | 53 | 989.5 |
| 20260508125519 | 46 | 225 | 2.0 | 4.0 | 0.00 | 0.00 | 0.00 | 54 | 989.6 |
| 20260508124519 | 45 | 248 | 4.0 | 7.0 | 0.00 | 0.00 | 0.00 | 56 | 989.5 |
| 20260508123519 | 45 | 293 | 4.0 | 7.0 | 0.00 | 0.00 | 0.00 | 57 | 989.6 |
| 20260508122524 | 44 | 270 | 4.0 | 7.0 | 0.00 | 0.00 | 0.00 | 57 | 989.5 |
| 20260508121519 | 43 | 270 | 4.0 | 8.0 | 0.00 | 0.00 | 0.00 | 62 | 989.5 |
| 20260508120519 | 43 | 270 | 2.0 | 4.0 | 0.00 | 0.00 | 0.00 | 61 | 989.6 |
| 20260508115519 | 43 | 248 | 3.0 | 3.0 | 0.00 | 0.00 | 0.00 | 61 | 989.6 |
| 20260508114521 | 42 | 248 | 5.0 | 8.0 | 0.00 | 0.00 | 0.00 | 62 | 989.6 |
| 20260508113519 | 42 | 270 | 2.0 | 4.0 | 0.00 | 0.00 | 0.00 | 62 | 989.6 |
| 20260508112519 | 40 | 0.0 | 1.0 | 0.00 | 0.00 | 0.00 | 64 | 989.4 | |
| 20260508111519 | 39 | 0.0 | 1.0 | 0.00 | 0.00 | 0.00 | 66 | 989.1 | |
| 20260508110519 | 39 | 248 | 1.0 | 3.0 | 0.00 | 0.00 | 0.00 | 67 | 989.1 |
| 20260508105521 | 39 | 248 | 3.0 | 6.0 | 0.00 | 0.00 | 0.00 | 68 | 989.2 |
| 20260508104632 | 39 | 270 | 3.0 | 6.0 | 0.00 | 0.00 | 0.00 | 67 | 989.1 |
| 20260508104419 | 39 | 270 | 2.0 | 4.0 | 0.00 | 0.00 | 0.00 | 68 | 989.0 |
| 20260508103419 | 39 | 270 | 2.0 | 4.0 | 0.00 | 0.00 | 0.00 | 66 | 988.8 |
| 20260508102419 | 39 | 270 | 1.0 | 2.0 | 0.00 | 0.00 | 0.00 | 66 | 988.7 |
| 20260508101421 | 39 | 270 | 1.0 | 4.0 | 0.00 | 0.00 | 0.00 | 67 | 988.5 |
| 20260508100421 | 38 | 293 | 2.0 | 4.0 | 0.00 | 0.00 | 0.00 | 67 | 988.4 |
| 20260508095421 | 39 | 293 | 2.0 | 3.0 | 0.00 | 0.00 | 0.00 | 66 | 988.4 |
| 20260508094419 | 39 | 293 | 3.0 | 6.0 | 0.00 | 0.00 | 0.00 | 64 | 988.4 |
| 20260508093419 | 39 | 293 | 1.0 | 2.0 | 0.00 | 0.00 | 0.00 | 64 | 988.3 |
| 20260508092419 | 39 | 0.0 | 0.0 | 0.00 | 0.00 | 0.00 | 64 | 988.3 | |
| 20260508091420 | 39 | 293 | 1.0 | 2.0 | 0.00 | 0.00 | 0.00 | 63 | 988.3 |
| 20260508090419 | 39 | 293 | 2.0 | 3.0 | 0.00 | 0.00 | 0.00 | 64 | 988.2 |
| 20260508085424 | 39 | 0.0 | 0.0 | 0.00 | 0.00 | 0.00 | 64 | 988.2 | |
| 20260508084419 | 39 | 293 | 1.0 | 2.0 | 0.00 | 0.00 | 0.00 | 64 | 988.3 |
| 20260508083419 | 39 | 293 | 1.0 | 2.0 | 0.00 | 0.00 | 0.00 | 65 | 988.3 |
| 20260508082419 | 38 | 293 | 1.0 | 2.0 | 0.00 | 0.00 | 0.00 | 65 | 988.3 |
| 20260508081421 | 38 | 293 | 2.0 | 3.0 | 0.00 | 0.00 | 0.00 | 66 | 988.1 |
| 20260508080419 | 38 | 0.0 | 1.0 | 0.00 | 0.00 | 0.00 | 66 | 988.1 | |
| 20260508075420 | 39 | 293 | 2.0 | 3.0 | 0.00 | 0.00 | 0.00 | 65 | 987.9 |
| 20260508074520 | 39 | 293 | 1.0 | 3.0 | 0.00 | 0.00 | 0.00 | 64 | 987.8 |
| 20260508073519 | 38 | 0.0 | 0.0 | 0.00 | 0.00 | 0.00 | 65 | 987.6 | |
| 20260508072519 | 38 | 0.0 | 0.0 | 0.00 | 0.00 | 0.00 | 67 | 987.6 | |
| 20260508071627 | 38 | 0.0 | 0.0 | 0.00 | 0.00 | 0.00 | 67 | 987.7 | |
| 20260508070919 | 38 | 0.0 | 0.0 | 0.00 | 0.00 | 0.00 | 68 | 987.8 | |
| 20260508065919 | 37 | 0.0 | 0.0 | 0.00 | 0.00 | 0.00 | 68 | 987.7 | |
| 20260508064921 | 38 | 0.0 | 0.0 | 0.00 | 0.00 | 0.00 | 66 | 987.8 | |
| 20260508064026 | 39 | 0.0 | 0.0 | 0.00 | 0.00 | 0.00 | 64 | 988.0 | |
| 20260508063019 | 39 | 0.0 | 1.0 | 0.00 | 0.00 | 0.00 | 63 | 988.0 | |
| 20260508062018 | 40 | 293 | 1.0 | 2.0 | 0.00 | 0.00 | 0.00 | 62 | 988.0 |
| 20260508061019 | 40 | 0.0 | 0.0 | 0.00 | 0.00 | 0.00 | 60 | 988.1 | |
| 20260508060019 | 41 | 0.0 | 0.0 | 0.00 | 0.00 | 0.00 | 58 | 988.0 | |
| 20260508055030 | 41 | 0.0 | 0.0 | 0.00 | 0.00 | 0.00 | 58 | 987.8 | |
| 20260508054018 | 41 | 0.0 | 0.0 | 0.00 | 0.00 | 0.00 | 59 | 987.8 | |
| 20260508053018 | 41 | 0.0 | 0.0 | 0.00 | 0.00 | 0.00 | 59 | 988.0 | |
| 20260508052125 | 42 | 0.0 | 0.0 | 0.00 | 0.00 | 0.00 | 57 | 988.2 | |
| 20260508051019 | 42 | 293 | 2.0 | 2.0 | 0.00 | 0.00 | 0.00 | 57 | 988.4 |
| 20260508050019 | 41 | 293 | 1.0 | 2.0 | 0.00 | 0.00 | 0.00 | 59 | 988.4 |
| 20260508045028 | 41 | 0.0 | 0.0 | 0.00 | 0.00 | 0.00 | 58 | 988.3 | |
| 20260508044019 | 42 | 0.0 | 0.0 | 0.00 | 0.00 | 0.00 | 58 | 988.3 | |
| 20260508043019 | 43 | 0.0 | 0.0 | 0.00 | 0.00 | 0.00 | 56 | 988.4 | |
| 20260508042023 | 43 | 293 | 1.0 | 2.0 | 0.00 | 0.00 | 0.00 | 56 | 988.4 |
| 20260508041027 | 43 | 293 | 1.0 | 5.0 | 0.00 | 0.00 | 0.00 | 56 | 988.4 |
| 20260508040124 | 42 | 293 | 2.0 | 3.0 | 0.00 | 0.00 | 0.00 | 57 | 988.5 |
| 20260508035319 | 43 | 293 | 1.0 | 2.0 | 0.00 | 0.00 | 0.00 | 57 | 988.5 |
| 20260508034319 | 43 | 0.0 | 0.0 | 0.00 | 0.00 | 0.00 | 56 | 988.4 | |
| 20260508033319 | 43 | 293 | 2.0 | 4.0 | 0.00 | 0.00 | 0.00 | 55 | 988.5 |
| 20260508032320 | 44 | 293 | 1.0 | 2.0 | 0.00 | 0.00 | 0.00 | 53 | 988.6 |
| 20260508031318 | 45 | 293 | 1.0 | 2.0 | 0.00 | 0.00 | 0.00 | 51 | 988.6 |
| 20260508030321 | 45 | 293 | 2.0 | 4.0 | 0.00 | 0.00 | 0.00 | 50 | 988.5 |
| 20260508025337 | 45 | 293 | 1.0 | 4.0 | 0.00 | 0.00 | 0.00 | 51 | 988.6 |
| 20260508024330 | 45 | 0.0 | 2.0 | 0.00 | 0.01 | 0.00 | 50 | 988.6 | |
| 20260508023319 | 46 | 0.0 | 0.0 | 0.00 | 0.02 | 0.00 | 48 | 988.7 | |
| 20260508022319 | 46 | 293 | 3.0 | 7.0 | 0.00 | 0.02 | 0.00 | 48 | 988.6 |
| 20260508021318 | 46 | 315 | 3.0 | 4.0 | 0.00 | 0.03 | 0.00 | 49 | 988.5 |
| 20260508020321 | 46 | 0.0 | 1.0 | 0.00 | 0.03 | 0.00 | 48 | 988.5 | |
| 20260508015327 | 47 | 315 | 1.0 | 4.0 | 0.00 | 0.04 | 0.00 | 47 | 988.4 |
| 20260508014321 | 47 | 315 | 2.0 | 5.0 | 0.00 | 0.05 | 0.00 | 47 | 988.2 |
| 20260508013327 | 47 | 338 | 2.0 | 4.0 | 0.00 | 0.05 | 0.00 | 46 | 987.9 |
| 20260508012529 | 47 | 315 | 3.0 | 6.0 | 0.00 | 0.05 | 0.00 | 46 | 987.8 |
| 20260508012049 | 47 | 315 | 3.0 | 7.0 | 0.00 | 0.05 | 0.00 | 46 | 987.8 |
| 20260508011428 | 48 | 315 | 2.0 | 8.0 | 0.00 | 0.05 | 0.00 | 46 | 987.8 |
| 20260508010546 | 48 | 293 | 4.0 | 7.0 | 0.00 | 0.06 | 0.00 | 46 | 987.7 |
| 20260508005819 | 48 | 315 | 2.0 | 4.0 | 0.00 | 0.06 | 0.00 | 46 | 987.7 |
| 20260508004819 | 48 | 315 | 2.0 | 4.0 | 0.00 | 0.06 | 0.00 | 46 | 987.5 |
| 20260508003818 | 49 | 315 | 1.0 | 3.0 | 0.00 | 0.06 | 0.00 | 45 | 987.3 |
| 20260508002819 | 49 | 315 | 2.0 | 5.0 | 0.00 | 0.06 | 0.00 | 44 | 987.2 |
| 20260508001820 | 49 | 315 | 1.0 | 3.0 | 0.00 | 0.06 | 0.00 | 45 | 987.1 |
| 20260507235825 | 50 | 315 | 4.0 | 9.0 | 0.00 | 0.06 | 0.00 | 44 | 986.9 |
| 20260507234827 | 51 | 315 | 1.0 | 3.0 | 0.00 | 0.07 | 0.00 | 44 | 986.9 |
| 20260507233818 | 51 | 293 | 4.0 | 8.0 | 0.00 | 0.07 | 0.00 | 42 | 986.6 |
| 20260507232821 | 52 | 293 | 6.0 | 8.0 | 0.00 | 0.08 | 0.00 | 41 | 986.6 |
| 20260507231818 | 52 | 293 | 1.0 | 3.0 | 0.00 | 0.09 | 0.00 | 42 | 986.6 |
| 20260507230819 | 53 | 270 | 9.0 | 11.0 | 0.00 | 0.15 | 0.00 | 40 | 986.5 |
| 20260507225820 | 53 | 315 | 1.0 | 2.0 | 0.00 | 0.20 | 0.00 | 42 | 986.5 |
| 20260507224818 | 53 | 293 | 6.0 | 10.0 | 0.00 | 0.21 | 0.00 | 42 | 986.5 |
| 20260507223818 | 53 | 0 | 4.0 | 5.0 | 0.00 | 0.21 | 0.00 | 41 | 986.5 |
| 20260507222818 | 54 | 270 | 6.0 | 9.0 | 0.00 | 0.21 | 0.00 | 38 | 986.3 |
| 20260507221818 | 55 | 315 | 6.0 | 9.0 | 0.00 | 0.21 | 0.00 | 39 | 986.3 |
| 20260507220818 | 55 | 270 | 11.0 | 13.0 | 0.00 | 0.22 | 0.00 | 42 | 986.3 |
| 20260507215818 | 54 | 293 | 5.0 | 8.0 | 0.00 | 0.26 | 0.00 | 40 | 986.3 |
| 20260507214818 | 53 | 270 | 8.0 | 10.0 | 0.00 | 0.26 | 0.00 | 40 | 986.3 |
| 20260507213818 | 54 | 293 | 4.0 | 9.0 | 0.00 | 0.26 | 0.00 | 43 | 986.3 |
| 20260507212818 | 53 | 338 | 6.0 | 12.0 | 0.00 | 0.26 | 0.00 | 41 | 986.3 |
| 20260507211818 | 53 | 293 | 5.0 | 9.0 | 0.00 | 0.26 | 0.00 | 42 | 986.3 |
| 20260507210819 | 53 | 293 | 4.0 | 9.0 | 0.00 | 0.26 | 0.00 | 43 | 986.4 |
| 20260507205819 | 53 | 293 | 6.0 | 10.0 | 0.00 | 0.26 | 0.00 | 41 | 986.2 |
| 20260507204818 | 53 | 338 | 7.0 | 11.0 | 0.00 | 0.26 | 0.00 | 41 | 986.2 |
| 20260507203819 | 53 | 293 | 3.0 | 4.0 | 0.00 | 0.27 | 0.00 | 44 | 986.2 |
| 20260507202818 | 53 | 293 | 7.0 | 10.0 | 0.00 | 0.27 | 0.00 | 41 | 986.2 |